Miscellaneous Local Product
Issued by NWS North Platte, NE

Home | Current Version | Previous Version | Text Only | Print | Product List | Glossary On
Versions: 1 2 3 4 5 6 7 8 9 10 11 12 13 14 15 16 17 18 19 20 21 22 23 24 25 26 27 28 29 30 31 32 33 34 35 36 37 38 39 40 41 42 43 44 45 46 47 48 49 50
305
AXUS43 KLBF 192110
MISLBF


WESTERN AND NORTH CENTRAL NEBRASKA HOURLY WEATHER ROUNDUP
NATIONAL WEATHER SERVICE NORTH PLATTE NE
300 PM CST SUN FEB 19 2017

NOTE: "FAIR" INDICATES FEW OR NO CLOUDS BELOW 12,000 FEET WITH NO
SIGNIFICANT WEATHER AND/OR OBSTRUCTIONS TO VISIBILITY.

NOTE: STATIONS NOT REPORTING VARIABLES SUCH AS SKY/WEATHER OR
PRESSURE ARE PROVIDED BY RAWS AND APRS NETWORKS AND ARE NOT UNDER
NATIONAL WEATHER SERVICE QUALITY CONTROL.

...OBSERVATIONS IN AND NEAR THE EASTERN PANHANDLE OF NEBRASKA...

CITY           SKY/WX    TMP DP  RH WIND       PRES   REMARKS
PINE RIDGE     CLOUDY    57  35  43 S12       29.55F
CHADRON        CLOUDY    67  30  25 S14       29.53F
ALLIANCE       CLOUDY    61  30  31 SE13      29.58F
SIDNEY         CLOUDY    64  29  26 S10       29.60F
CRESCENT LAKE    N/A     59  29  31 S9          N/A
$$

...OBSERVATIONS IN NORTHERN NEBRASKA AND FAR SOUTHERN SOUTH DAKOTA...

CITY           SKY/WX    TMP DP  RH WIND       PRES   REMARKS
WINNER         FAIR      71  39  31 SW25G32   29.55F
VALENTINE      CLOUDY    64  36  35 S20       29.57F
THEDFORD       CLOUDY    65  40  39 S22       29.64S
AINSWORTH      MOSUNNY   67  42  39 S20       29.60F
O`NEILL        CLOUDY    71  45  39 S24G31    29.66S
ORD            MOSUNNY   70  41  34 S14G25    29.67F
BROKEN BOW     PTSUNNY   69  44  40 S25G35    29.66F
VALENTINE NWR    N/A     64  38  38 S14G24      N/A
HALSEY           N/A     67  39  35 S9G20       N/A
CHAMBERS         N/A     68  45  42 S7          N/A
EWING            N/A     68  51  54 S10G20      N/A
$$

...OBSERVATIONS IN SOUTHWEST NEBRASKA AND FAR NORTHEAST COLORADO...

CITY           SKY/WX    TMP DP  RH WIND       PRES   REMARKS
HOLYOKE        FAIR      63  36  36 SE16      29.62F
IMPERIAL       CLOUDY    66  37  34 SE18      29.63F
OGALLALA       CLOUDY    63  36  37 SE13      29.64F
NORTH PLATTE   MOSUNNY   63  43  48 S9G20     29.67F
MCCOOK         MOSUNNY   75  44  33 S22G31    29.65F
LEXINGTON      MOSUNNY   73  42  32 S22G30    29.68S
STAPLETON        N/A     61  44  53 CALM        N/A
GOTHENBURG       N/A     66  42  42 S13         N/A
CALLAWAY         N/A     62  46  56 SW23        N/A
$$

...OBSERVATIONS IN CENTRAL LINCOLN COUNTY AREA...

CITY           SKY/WX    TMP DP  RH WIND       PRES   REMARKS
N.P. AIRPORT   MOSUNNY   63  43  48 S9G20     29.67F
N.P. DOWNTOWN    N/A     62  46  56 S3          N/A
N.P. SOUTHEAST   N/A     61  45  54 S10         N/A
N.P. HILLCREST   N/A     61  46  57 S8          N/A
$$

...SOME OBSERVATIONS FROM AROUND THE REGION...

CITY           SKY/WX    TMP DP  RH WIND       PRES   REMARKS
LARAMIE        CLOUDY    51  22  31 SW14      29.63F
CHEYENNE       CLOUDY    56  25  30 E8        29.61F
DENVER         CLOUDY    63  22  20 S25       29.55F
AKRON          CLOUDY    66  23  19 S17G28    29.59F
SCOTTSBLUFF    CLOUDY    59  33  37 SE9       29.59F
RAPID CITY     CLOUDY    69  32  25 S21       29.48S
BISMARCK       CLOUDY    40  35  83 SE9       29.50F WCI  34
PIERRE         CLOUDY    66  37  34 S17       29.49F
SIOUX FALLS    PTSUNNY   62  51  67 S18G29    29.70F
OMAHA          CLOUDY    69  48  47 S18       29.81F
GRAND ISLAND   SUNNY     70  47  43 S20G29    29.72F
KANSAS CITY    PTSUNNY   73  54  51 S15       29.89F
WICHITA        CLOUDY    62  55  77 S16       29.85F
OKLAHOMA CITY  PTSUNNY   73  59  61 S18G28    29.83F
DALLAS         CLOUDY    76  66  71 SE17      29.84F
AMARILLO       PTSUNNY   67  37  33 S17G25    29.80S
DODGE CITY     SUNNY     70  50  49 S31G38    29.74F
HAYS           SUNNY     71  49  45 S18       29.73F
GOODLAND       SUNNY     66  43  43 S25G35    29.66F
$$




USA.gov is the U.S. government's official web portal to all federal, state and local government web resources and services.